Home > Weather > Las Palmas > Past weeks

Flag for Spain Past Weather in Las Palmas, Canary Islands, Spain — Yesterday and Last 2 Weeks

Now
77 °F

Scattered clouds.


Feels Like: 79 °F
Forecast: 70 / 79 °F
Wind: 28 mph from Northeast

Location: Las Palmas De Gran Canaria / Gando

Current Time: Jun 30, 2016 at 1:25:26 PM

Latest Report: Jun 30, 2016 at 12:30 PM


Visibility: N/A

Pressure: 30.15 "Hg

Humidity: 61%

Dew Point: 63 °F

Location of Las PalmasLocation

Past Weather in Las Palmas — Graph

°F

Las Palmas Temperature Yesterday

Maximum temperature yesterday: 79 °F (at 3:00 PM)
Minimum temperature yesterday: 70 °F (at 1:30 AM)
Average temperature yesterday: 73 °F

High & Low Weather Summary for the Past Weeks

 TemperatureHumidityPressure
High84 °F (Jun 20, 2:30 PM)88% (Jun 16, 2:00 AM)30.24 "Hg (Jun 16, 2:00 AM)
Low66 °F (Jun 17, 5:30 AM)35% (Jun 20, 1:30 PM)29.92 "Hg (Jun 22, 6:30 PM)
Average73 °F65%30.08 "Hg
* Reported Jun 15 12:00 PM — Jun 30 12:00 PM, Las Palmas, Weather by CustomWeather, © 2016

Note: Actual official high and low records may vary slightly from our data, if they occured in-between our weather recording intervals... More about our weather records

Advertising

Las Palmas Weather History for the Previous 24 Hours

Scroll right to see more
 ConditionsComfort  
Time TempWeatherWind HumidityBarometerVisibility
12:00 PM
Thu, Jun 30
77 °FScattered clouds.29 mph57%30.15 "HgN/A
11:30 AM75 °FScattered clouds.24 mph61%30.15 "HgN/A
11:00 AM73 °FScattered clouds.25 mph65%30.15 "HgN/A
10:30 AM75 °FScattered clouds.28 mph61%30.15 "HgN/A
10:00 AM73 °FPartly sunny.25 mph65%30.15 "HgN/A
9:30 AM72 °FPartly sunny.25 mph69%30.15 "HgN/A
9:00 AM72 °FPartly sunny.22 mph69%30.12 "HgN/A
8:30 AM72 °FPartly sunny.23 mph69%30.12 "HgN/A
8:00 AM72 °FPassing clouds.22 mph69%30.12 "HgN/A
7:30 AM70 °FPassing clouds.21 mph73%30.12 "HgN/A
7:00 AM70 °FPassing clouds.22 mph73%30.12 "HgN/A
6:30 AM70 °FPassing clouds.21 mph73%30.09 "HgN/A
6:00 AM70 °FPassing clouds.21 mph73%30.09 "HgN/A
5:30 AM70 °FPassing clouds.21 mph73%30.09 "HgN/A
5:00 AM70 °FPassing clouds.22 mph78%30.09 "HgN/A
4:30 AM70 °FPassing clouds.24 mph78%30.09 "HgN/A
4:00 AM70 °FPassing clouds.18 mph73%30.09 "HgN/A
3:30 AM70 °FPassing clouds.22 mph78%30.09 "HgN/A
3:00 AM72 °FPassing clouds.21 mph73%30.09 "HgN/A
2:30 AM72 °FPassing clouds.21 mph73%30.12 "HgN/A
2:00 AM72 °FPassing clouds.23 mph73%30.12 "HgN/A
1:30 AM72 °FPassing clouds.23 mph78%30.12 "HgN/A
1:00 AM72 °FPassing clouds.22 mph78%30.12 "HgN/A
12:30 AM72 °FPassing clouds.22 mph78%30.12 "HgN/A
12:00 AM72 °FPassing clouds.23 mph78%30.12 "HgN/A
11:30 PM
Wed, Jun 29
72 °FPassing clouds.21 mph78%30.12 "HgN/A
11:00 PM72 °FPassing clouds.22 mph78%30.12 "HgN/A
10:30 PM72 °FPassing clouds.23 mph78%30.12 "HgN/A
10:00 PM72 °FPartly sunny.22 mph78%30.09 "HgN/A
9:30 PM72 °FPartly sunny.24 mph78%30.09 "HgN/A
9:00 PM73 °FScattered clouds.22 mph74%30.09 "HgN/A
8:30 PM73 °FPartly sunny.23 mph74%30.09 "HgN/A
8:00 PM75 °FPartly sunny.23 mph69%30.09 "HgN/A
7:30 PM75 °FPartly sunny.22 mph69%30.07 "HgN/A
7:00 PM75 °FPartly sunny.24 mph69%30.07 "HgN/A
6:30 PM75 °FPartly sunny.25 mph69%30.07 "HgN/A
6:00 PM75 °FScattered clouds.25 mph65%30.07 "HgN/A
5:30 PM79 °FScattered clouds.24 mph58%30.07 "HgN/A
5:00 PM79 °FScattered clouds.26 mph58%30.07 "HgN/A
4:30 PM77 °FPassing clouds.29 mph65%30.07 "HgN/A
4:00 PM79 °FPassing clouds.25 mph58%30.07 "HgN/A
3:30 PM79 °FPassing clouds.26 mph58%30.07 "HgN/A
3:00 PM79 °FScattered clouds.28 mph58%30.09 "HgN/A
2:30 PM77 °FScattered clouds.24 mph61%30.09 "HgN/A
2:00 PM77 °FPartly sunny.24 mph61%30.09 "HgN/A
1:30 PM77 °FScattered clouds.23 mph57%30.09 "HgN/A
1:00 PM77 °FScattered clouds.23 mph54%30.09 "HgN/A
Weather by CustomWeather, © 2016

See weather overviewHow to use our weather pages